FENGYUN 2H (43491 NORAD) Tracking and Keplerian Element Data

This shows tracking and keplerian element data for the satellite.

Feedback or suggestion? Click here.




ElementValue
Catalog43491
NameFENGYUN 2H
Epoch Orbit325
Epoch Day106.87273676
Epoch Year2019
RAAN282.6795
Inclination1.6531
Eccentricity0.0001885
Argument of Perigee241.8532
Mean Anonmoly73.2239
Mean Motion1.00268337
Decay Rate-1.48E-06
L11 43491U 18050A 19106.87273676 -.00000148 00000-0 00000-0 0 9992
L22 43491 1.6531 282.6795 0001885 241.8532 73.2239 1.00268337 3251

Live tracking and technical data element details for FENGYUN 2H (NORAD 43491). FENGYUN 2H can be tracked NOW for your location showing map with azimuth and elevation plus other details from your city location.

Track the satellite on the map from your city or location and see movement details for azimuth, elevation, latitude, longitude, range, height, and movement on the map or in text.







IsCatalogInMostPopularTable: catalog: 43491, numindb: 103
Update: records affected: 1



GetName: 43491 FENGYUN 2H

Hit Count: updated at: Fri, 19 Apr 2019 20:59:24 GMT